Wind_Speed
28 28 28 28 28 28 29 29 30 33 35 37 37 37 36 35 37 39 39 38 38 39 40 40 41 41 42 43 43 44 44 44 44 43 42 42 41 41 41 41 40 39 38 37 35 35 34 34 34 35 36 36 36 36 36 35 35 35 35 35 35 34 33 33 33 32 30 28 30 30 30 31 31 31 32 33 33 34 35 36 37 37 38 38 38
30 30 30 30 29 29 29 30 31 32 34 35 36 37 37 36 37 39 40 39 38 39 40 41 42 42 42 43 44 45 45 45 44 44 43 43 42 42 42 41 40 39 38 37 36 35 35 35 36 37 38 38 38 38 37 36 35 35 36 36 35 35 35 35 34 33 32 30 30 31 31 31 32 32 33 34 35 36 36 37 38 39 39 39 39
32 32 32 31 31 30 30 30 31 32 33 34 34 35 36 37 38 39 40 40 39 40 41 42 42 43 43 44 45 45 46 45 45 44 44 44 43 43 42 41 40 38 37 36 36 36 36 37 38 39 39 40 39 39 37 36 36 36 36 36 36 36 36 36 35 34 33 31 30 31 32 32 33 34 35 35 36 37 37 38 39 40 41 40 40
33 33 33 33 33 32 32 31 32 33 33 33 33 33 35 37 38 39 40 40 40 41 42 42 42 43 44 45 46 46 47 46 46 45 45 44 43 43 42 41 39 38 38 38 37 38 39 39 40 41 41 41 40 39 37 37 37 36 36 36 37 38 37 37 36 36 35 34 32 32 32 33 33 35 36 37 38 39 39 40 40 41 41 41 42
36 36 35 35 35 34 34 33 33 33 33 33 32 32 34 36 37 38 39 41 41 41 41 42 42 43 44 45 46 47 47 47 46 46 45 44 44 43 42 41 40 40 40 40 40 40 41 42 42 43 42 41 40 39 38 37 37 37 37 38 39 39 39 38 38 38 38 36 34 33 33 34 35 36 37 39 39 40 41 42 42 42 42 43 43
38 38 37 37 36 36 36 35 34 34 34 34 34 33 33 34 36 38 39 40 40 40 41 41 42 42 43 45 47 48 48 47 46 46 45 45 45 44 43 42 42 42 42 42 42 43 43 44 44 44 43 42 40 39 38 38 38 38 39 40 40 40 40 40 39 39 39 39 37 35 34 35 36 37 39 40 41 42 43 44 44 43 44 44 44
40 39 39 38 37 37 37 36 36 35 35 35 35 35 34 34 35 37 38 39 39 39 40 41 41 42 44 46 47 48 48 47 47 46 46 46 45 44 44 43 44 44 43 43 44 45 45 45 45 44 44 42 40 39 39 39 40 40 41 41 42 42 42 41 40 40 41 41 39 38 37 38 39 40 41 42 43 44 45 46 46 46 46 46 45
40 40 40 39 37 36 37 37 37 36 36 36 36 36 35 34 34 36 37 38 38 39 40 41 42 43 44 46 47 48 49 49 49 48 47 46 46 45 45 44 44 44 44 45 46 47 46 46 46 46 45 42 41 41 41 41 41 41 42 42 42 43 42 42 41 41 41 42 41 40 40 41 41 42 43 44 45 45 46 47 48 48 48 48 46
40 39 39 39 38 37 36 36 37 38 37 36 36 35 35 34 34 34 35 37 37 39 40 42 43 43 44 46 47 49 50 50 49 48 47 46 46 46 45 45 45 45 46 47 48 48 48 48 49 48 45 43 43 44 43 42 42 43 43 43 43 43 43 42 42 42 42 42 42 42 43 44 43 44 45 46 47 47 47 49 50 50 50 49 48
40 39 38 38 38 37 35 34 35 37 38 37 36 35 35 35 35 34 34 36 37 39 40 42 43 44 45 46 48 50 50 50 49 48 47 46 46 46 46 45 46 47 48 49 49 50 51 51 50 47 44 44 46 46 43 42 43 44 44 44 44 44 43 43 43 42 42 43 43 43 45 46 45 45 47 48 48 48 48 50 51 51 51 51 50
41 39 37 37 37 36 35 34 33 34 36 37 37 36 36 36 36 35 35 36 37 38 40 41 43 44 45 47 48 49 50 50 50 49 48 48 47 47 46 46 47 49 50 51 52 52 52 51 49 46 45 46 47 46 44 44 45 45 45 45 45 44 43 43 43 43 43 43 44 44 47 48 47 47 49 49 49 49 50 51 52 52 52 53 52
43 41 38 37 37 36 35 34 33 33 34 35 37 38 37 37 37 37 37 37 38 38 39 40 41 43 45 46 47 49 50 50 50 49 48 48 47 47 47 48 50 51 52 53 53 53 51 49 48 46 45 47 48 46 44 45 47 46 46 45 45 44 43 44 44 43 43 44 45 46 48 49 49 49 49 50 50 51 52 53 53 53 53 54 53
44 42 40 38 37 36 35 34 33 33 33 34 36 37 38 38 38 38 38 39 39 39 39 40 40 42 44 45 46 48 50 50 50 50 49 48 48 48 48 50 52 52 53 53 54 52 49 47 47 45 46 48 48 46 46 48 48 47 46 45 45 44 43 44 45 44 44 45 47 47 48 50 51 50 50 51 52 53 54 54 54 55 55 55 55
44 43 41 39 38 37 36 35 34 33 34 34 35 37 38 38 38 39 39 40 41 41 40 40 39 40 41 42 45 48 50 50 51 50 49 48 47 48 49 51 52 53 53 54 53 50 48 48 47 45 47 49 47 46 47 49 48 46 45 45 44 44 44 45 45 44 45 47 48 49 49 50 52 52 52 54 55 55 56 56 56 57 57 57 56
44 44 43 41 40 39 38 37 35 34 34 34 35 36 38 39 39 40 40 40 41 41 41 41 40 39 39 41 44 48 50 51 51 50 48 47 47 48 50 52 53 54 55 54 52 50 49 48 46 46 48 49 47 46 48 48 46 45 45 44 44 44 44 45 45 45 47 48 49 50 50 50 52 54 54 56 57 57 57 57 57 59 59 59 59
43 42 41 41 40 40 39 38 36 35 35 34 35 36 37 39 40 40 41 41 41 41 41 41 40 39 39 40 42 46 49 50 49 48 46 46 47 49 51 53 55 56 54 53 51 51 49 47 46 48 48 46 44 45 46 45 45 44 44 44 44 45 45 45 46 47 49 50 50 51 52 52 54 56 56 57 59 59 60 59 59 60 62 62 62
38 38 37 38 38 38 37 36 35 34 34 33 34 34 36 37 38 39 41 41 41 41 41 41 40 39 39 39 41 44 48 49 48 47 46 48 49 50 52 55 56 55 53 51 50 49 46 45 45 44 42 39 39 41 42 43 43 43 44 44 45 45 45 45 46 47 49 50 51 52 54 54 55 57 57 58 59 61 63 63 61 62 64 65 65
35 35 35 35 35 35 35 34 34 33 33 33 33 34 35 35 36 37 39 40 41 42 41 41 40 40 39 39 41 43 46 48 48 48 49 50 51 52 55 57 55 52 50 48 45 42 40 40 39 37 36 35 36 38 39 41 42 43 44 45 45 45 44 44 46 47 49 51 53 54 55 56 56 57 57 58 59 60 63 65 64 64 66 66 66
35 35 35 35 35 34 34 34 34 34 34 34 34 34 35 35 35 36 37 39 40 41 41 41 40 40 40 39 39 40 43 45 48 49 50 51 52 55 56 54 50 46 42 38 35 33 33 33 33 33 33 33 34 36 38 41 42 43 44 45 46 45 44 45 48 49 51 52 54 55 56 56 56 57 57 58 59 59 62 63 64 64 66 66 65
34 34 34 34 34 34 35 35 35 35 34 34 34 34 34 34 35 36 36 38 39 40 40 40 39 38 37 35 35 36 39 43 47 49 51 52 53 53 50 45 39 34 30 28 28 28 29 29 30 30 30 31 33 36 38 40 42 43 44 46 47 47 47 48 51 52 54 55 56 56 57 57 57 58 58 58 59 60 61 62 63 63 64 64 63
34 33 34 33 33 33 33 33 33 33 32 32 32 32 32 32 33 33 34 35 36 36 36 35 34 33 33 32 33 34 36 40 43 45 47 47 45 41 36 31 27 25 25 25 26 26 26 26 27 27 29 32 34 36 39 41 43 44 46 48 49 50 50 52 53 54 56 57 57 58 58 58 59 59 59 60 60 60 61 61 62 61 61 61 60
33 32 32 32 31 31 31 30 30 30 29 29 29 28 28 28 28 29 29 30 30 30 29 29 29 29 30 30 31 32 33 34 35 35 34 32 29 26 24 23 22 22 23 23 23 24 24 25 27 29 31 33 35 38 40 42 45 47 48 50 51 52 53 54 55 56 57 58 59 59 59 60 60 60 60 61 61 62 62 62 62 62 62 62 62
31 30 29 28 27 27 26 26 26 26 26 25 24 23 22 21 21 22 23 24 24 24 25 26 27 28 29 30 30 29 28 26 25 24 23 21 21 21 20 20 20 20 21 21 22 23 24 27 29 31 33 35 37 39 41 43 46 48 49 50 52 53 55 56 56 57 58 59 60 60 60 60 61 61 62 62 62 62 62 61 60 60 60 60 60
28 27 26 25 25 25 25 25 25 25 24 23 21 20 19 18 18 19 20 21 21 22 23 24 25 25 25 24 22 21 20 19 19 18 18 18 18 18 18 17 17 18 19 20 22 24 27 29 31 32 34 35 37 39 41 43 46 48 50 51 53 54 55 57 57 58 59 60 60 60 60 60 60 60 60 59 58 58 57 57 57 57 57 57 57
26 25 24 23 23 22 23 23 22 22 21 20 19 19 18 18 18 19 20 20 20 20 20 20 20 19 18 18 17 17 17 17 17 17 16 16 15 14 14 15 16 18 20 22 24 26 27 29 30 31 32 34 36 39 41 44 47 49 51 53 54 55 56 57 58 59 59 59 59 59 58 57 57 56 55 55 54 55 55 55 56 56 57 58 58
23 22 21 21 20 20 20 20 20 19 19 19 19 18 17 17 17 17 17 17 17 17 17 16 17 16 16 16 15 15 14 14 13 13 12 11 11 12 13 16 18 20 21 22 23 24 25 27 29 31 33 35 37 40 42 45 48 50 52 54 56 57 57 57 58 58 58 58 57 56 56 55 55 55 54 54 55 55 55 56 57 57 58 59 60
20 20 20 20 19 19 19 19 19 19 19 18 18 16 16 15 15 14 14 13 13 13 13 13 13 12 12 11 11 11 11 10 10 10 10 11 12 14 16 17 18 19 20 20 22 24 26 28 30 32 34 36 39 41 44 46 49 51 53 55 57 57 58 57 57 57 56 56 55 55 55 55 55 55 55 55 55 55 56 57 58 59 59 60 60
19 19 19 19 19 18 18 18 17 17 16 15 15 14 13 13 13 12 12 12 11 11 11 10 10 10 10 10 10 10 10 10 10 10 11 13 14 15 16 16 16 17 18 20 23 25 28 30 32 34 36 38 40 42 44 47 49 51 54 56 57 57 57 56 55 55 54 54 54 54 54 54 54 54 54 54 54 55 56 57 58 58 59 59 60
19 18 18 17 16 16 15 14 14 13 13 12 12 12 11 11 11 11 11 10 10 10 10 11 11 11 10 10 10 10 10 10 11 12 13 14 14 14 14 14 16 18 20 23 25 27 30 32 33 35 37 39 41 43 45 47 49 51 53 55 56 55 55 54 53 53 53 53 53 52 53 53 53 53 54 54 54 55 55 56 57 58 59 59 60
17 16 15 14 13 13 12 12 11 11 11 11 11 10 10 9 9 9 10 10 10 10 10 10 10 10 10 10 10 11 11 12 13 13 13 13 13 13 15 16 18 21 23 25 27 30 31 33 35 37 38 40 42 43 45 46 48 49 51 52 53 53 53 52 52 52 52 52 52 52 52 53 53 54 55 55 55 56 57 58 58 59 60 60 60
14 13 13 12 11 12 12 11 11 11 11 10 10 10 9 9 10 10 10 11 11 11 11 11 11 11 11 11 12 12 13 13 13 13 13 13 14 16 17 19 21 22 24 27 29 31 33 35 37 39 40 41 42 43 44 45 47 47 48 49 50 50 50 50 50 49 49 50 50 51 52 53 53 54 55 55 56 57 57 59 59 59 59 59 59
13 13 12 11 12 12 11 11 11 10 10 10 10 10 10 10 10 11 11 11 12 12 12 12 12 12 13 13 13 14 14 14 14 14 14 15 17 18 20 21 23 24 26 29 31 34 36 37 39 41 41 42 43 44 45 45 46 46 46 46 46 46 46 46 47 47 47 49 49 50 51 52 53 53 54 55 55 56 56 57 58 58 58 57 57
14 13 12 12 12 11 10 10 10 9 10 10 10 10 11 11 12 12 12 13 13 13 13 13 14 14 14 15 15 16 16 16 16 16 17 18 19 20 22 23 25 27 29 32 34 36 38 39 41 42 42 43 44 45 45 45 45 44 44 43 43 43 44 44 45 46 47 48 49 50 50 51 51 52 52 53 53 54 54 54 55 55 55 55 53
14 13 13 12 11 10 10 10 10 10 11 11 12 12 13 13 14 15 15 15 15 15 15 15 15 16 17 17 18 18 18 17 18 18 19 20 21 22 24 26 27 29 31 33 35 37 39 40 41 42 43 44 44 44 44 44 43 42 42 42 42 42 43 44 45 46 46 47 48 48 49 49 49 50 50 50 51 51 51 51 52 52 52 51 49
14 13 12 12 12 12 12 12 12 12 13 13 14 14 15 16 17 17 17 17 17 17 17 17 18 18 19 19 19 19 19 19 20 21 21 22 23 24 26 28 29 31 33 34 36 38 39 41 42 43 44 44 44 43 42 41 41 40 41 41 42 43 43 44 45 45 45 46 47 47 47 47 47 47 48 47 47 47 48 49 49 49 48 46 43
14 13 13 13 13 13 14 14 14 14 15 15 16 17 17 18 19 19 19 19 18 18 19 19 20 21 21 21 21 21 21 22 22 23 23 24 25 26 28 30 31 33 34 36 37 39 40 42 43 43 44 43 43 42 40 39 39 40 40 41 42 43 43 44 44 44 44 45 45 45 45 45 44 45 44 44 43 44 45 46 46 45 43 40 36
15 15 15 15 15 15 15 16 16 16 17 18 19 19 20 20 20 20 20 20 20 21 21 22 22 22 22 23 23 23 23 24 24 24 25 26 27 28 30 31 33 34 36 37 39 40 41 42 43 43 43 42 41 40 39 38 39 40 41 42 42 43 43 43 43 43 43 43 43 43 42 42 42 41 40 40 40 41 41 42 42 41 38 35 32
16 16 16 16 16 17 17 18 18 19 20 20 21 21 22 22 22 22 22 22 23 23 23 23 24 24 24 25 25 25 25 26 26 26 26 27 29 30 31 33 34 36 37 39 40 41 42 42 42 42 42 40 39 38 38 39 39 40 41 41 42 42 42 42 42 42 41 41 41 40 40 39 38 37 37 37 37 38 38 38 38 37 34 31 28
16 17 17 17 18 18 19 20 20 21 22 22 22 23 23 23 23 24 24 24 25 24 24 25 25 25 26 26 26 26 27 27 27 27 28 29 30 32 33 34 36 37 38 39 40 41 42 42 42 41 40 39 38 38 38 39 40 40 40 41 41 41 40 40 40 40 39 39 38 37 37 36 35 34 34 34 35 35 35 34 34 33 31 28 26
18 18 18 19 20 20 21 21 22 22 23 23 23 24 24 25 25 25 26 26 25 25 25 26 26 27 27 27 27 27 28 28 28 29 30 31 32 33 34 36 37 38 39 40 40 41 41 42 41 41 39 38 38 38 38 39 40 40 40 39 39 39 38 38 38 37 37 36 36 35 35 34 32 31 31 32 33 32 32 31 31 30 28 26 24
19 20 20 21 21 22 22 23 23 24 24 24 24 25 25 26 26 27 26 26 26 26 26 27 27 27 27 28 28 29 29 30 30 31 32 33 34 35 36 37 38 39 40 40 41 41 42 42 41 40 39 38 38 38 39 39 39 39 38 38 38 37 36 36 35 35 34 34 33 33 32 31 30 29 30 31 30 30 30 29 28 27 26 24 22
21 22 22 22 23 24 24 24 24 25 25 25 26 26 27 27 27 27 27 27 27 27 27 28 28 28 28 29 29 30 31 31 32 33 34 34 35 36 37 38 39 40 40 41 41 42 42 42 41 40 39 39 39 39 39 39 38 37 37 36 36 35 34 34 33 32 31 31 31 30 30 29 28 28 28 29 28 28 28 27 26 25 24 22 21
23 24 24 24 25 25 25 25 26 26 26 27 27 27 28 28 27 27 27 27 27 28 28 29 29 29 29 30 31 32 32 33 33 34 35 36 37 38 38 39 40 41 41 41 42 42 42 42 41 40 39 39 39 39 39 38 37 36 35 34 34 33 32 32 31 30 29 29 29 28 28 27 26 26 27 27 27 26 26 25 24 23 22 21 19
26 26 26 26 26 26 26 27 27 27 28 28 28 28 28 28 28 28 28 28 28 29 29 30 30 30 31 32 32 33 33 34 35 36 37 37 38 39 40 40 41 42 42 42 42 42 42 42 40 39 39 38 38 38 38 36 35 34 33 33 32 31 30 30 29 28 27 26 26 26 26 25 24 24 25 25 25 24 23 23 22 21 20 19 18
28 28 28 28 28 28 28 28 28 29 29 29 29 28 28 28 28 28 29 29 30 30 31 31 32 32 33 33 33 34 34 35 36 37 38 39 40 41 41 42 42 42 43 43 42 42 42 42 40 39 39 38 38 37 36 35 34 33 32 31 30 29 28 28 27 26 25 24 24 24 23 23 23 23 23 23 23 22 21 21 20 19 19 18 17
30 30 30 30 30 29 29 29 29 30 29 29 29 29 28 28 29 29 29 30 31 31 32 33 33 34 34 35 35 35 36 37 38 39 40 41 42 43 43 43 43 43 43 43 43 42 42 41 40 39 38 38 37 36 36 35 34 32 31 30 28 27 26 26 26 25 24 23 22 22 22 21 21 21 21 21 21 20 19 19 18 18 17 17 16
32 32 32 31 31 30 30 30 30 30 30 29 29 29 29 29 29 30 31 31 32 33 33 34 35 35 36 36 37 38 39 40 41 42 42 43 44 45 45 45 45 45 44 44 43 43 42 41 40 39 38 37 37 36 35 34 33 32 31 30 28 26 25 25 25 25 23 22 21 21 20 20 20 20 20 20 20 19 18 18 17 17 17 16 16
33 33 32 32 31 31 31 30 30 30 30 30 30 30 30 30 31 31 32 33 34 34 35 36 36 37 37 38 39 40 41 42 43 44 45 45 46 46 46 46 45 45 45 44 44 43 42 41 40 38 37 37 36 36 35 34 33 32 31 29 28 26 25 24 24 24 23 22 21 21 20 20 20 20 20 20 20 19 18 17 17 16 16 16 16
33 33 33 32 31 31 31 31 31 31 31 30 30 31 31 32 33 33 34 35 35 36 37 38 38 39 39 40 41 42 43 44 45 46 46 47 47 47 47 46 46 45 45 44 44 43 42 41 39 38 37 36 36 36 35 34 33 32 31 30 28 27 25 24 25 25 24 23 22 21 21 20 20 20 20 20 20 20 19 18 17 17 16 16 16
34 33 32 32 31 31 32 32 32 32 31 32 32 33 33 34 35 35 36 37 38 38 39 39 40 41 42 43 44 45 46 46 47 47 48 48 48 48 47 46 46 46 45 44 44 43 42 41 39 38 37 36 36 36 35 34 33 32 31 30 29 28 26 25 25 25 25 24 23 23 22 22 21 21 21 21 21 20 20 19 18 18 17 17 16
34 33 32 32 32 32 32 32 33 33 33 34 34 35 35 36 37 38 38 39 39 40 41 41 42 43 44 45 46 47 48 48 48 49 49 49 48 48 48 47 46 46 45 44 43 42 42 41 40 38 37 37 36 36 35 34 33 32 31 30 29 28 27 26 26 26 26 25 25 24 24 24 23 22 22 21 21 21 21 20 19 19 18 18 17
Wind_Direction
275 274 272 271 269 268 266 264 262 261 261 261 261 262 262 260 255 250 249 250 249 247 244 242 242 242 242 242 242 241 240 239 238 238 238 239 239 241 242 244 247 249 251 254 256 258 260 261 263 266 269 271 273 277 282 284 285 286 288 290 292 295 297 298 301 304 301 296 294 293 292 291 290 291 292 293 295 295 296 297 298 299 299 300 301
273 273 272 272 271 269 267 265 263 261 261 260 260 260 260 260 257 253 250 250 250 247 244 242 242 242 242 242 241 241 240 239 238 238 238 239 239 241 243 245 247 249 251 254 256 258 259 260 262 266 268 269 273 279 281 282 284 286 287 289 291 294 295 296 298 301 300 296 294 293 291 290 291 291 292 293 294 295 296 297 298 299 300 301 301
272 272 272 271 271 270 268 267 265 263 262 261 260 259 259 259 258 255 251 250 249 247 244 243 243 243 243 242 241 241 240 239 238 238 238 238 239 241 244 246 248 250 252 255 256 256 256 258 262 265 266 270 275 279 281 283 285 285 285 288 290 292 294 294 295 298 299 296 294 292 290 290 290 291 292 292 293 295 296 297 298 299 299 301 301
273 272 271 270 269 269 269 268 267 266 265 263 261 260 259 259 258 255 251 250 249 248 245 244 244 244 244 243 242 241 241 240 239 238 238 238 239 242 244 246 248 251 253 254 253 253 254 258 262 264 266 272 277 280 281 284 285 284 285 287 288 290 293 293 293 296 297 295 293 292 291 289 290 290 291 292 293 294 296 297 297 298 299 301 301
274 273 273 271 270 270 270 269 269 268 267 265 262 260 259 259 258 255 251 250 250 249 247 245 246 246 246 245 243 242 241 240 239 238 238 238 240 242 244 247 249 250 251 251 251 252 256 260 261 263 268 274 278 279 282 284 284 284 285 286 288 290 292 293 293 294 296 294 292 292 291 289 288 289 291 292 294 295 296 297 297 299 300 301 300
272 273 273 272 272 271 270 270 269 268 267 265 262 260 259 258 257 255 252 251 251 251 249 248 248 249 248 246 244 242 241 240 240 239 239 239 240 242 245 247 248 249 250 251 252 254 258 259 260 264 270 275 277 279 282 284 284 284 285 286 288 289 291 292 293 293 294 293 292 292 292 290 289 290 291 293 295 296 297 297 298 300 301 300 300
271 271 272 273 274 272 271 269 268 268 266 264 262 260 258 257 256 254 253 252 253 253 251 250 250 250 249 247 244 242 241 240 240 239 238 238 240 243 246 247 249 250 251 252 254 256 257 258 261 268 273 275 276 279 282 284 284 285 286 287 288 289 290 292 292 293 293 293 292 292 294 292 290 291 293 294 296 297 298 299 300 302 301 301 301
274 273 273 274 274 273 271 268 267 267 266 265 264 262 259 257 256 255 254 254 255 255 253 252 251 250 249 247 245 242 240 240 239 238 237 238 240 243 245 247 249 251 252 253 254 255 256 259 265 271 273 275 277 280 281 283 285 286 288 288 287 288 290 291 292 292 292 292 292 292 294 294 292 292 294 295 296 298 298 299 301 302 301 301 302
277 277 276 275 274 273 271 269 267 266 266 266 266 264 261 257 256 256 256 256 256 256 255 254 253 252 250 248 245 242 240 239 238 238 237 238 240 243 246 248 249 251 252 253 254 255 258 263 268 272 274 276 279 279 279 283 287 288 288 287 287 288 290 291 291 291 291 292 292 291 292 294 293 293 294 295 297 298 299 299 300 300 300 301 301
280 279 278 276 275 274 273 271 269 266 266 267 267 266 263 260 257 256 256 257 257 257 257 256 255 254 252 249 246 242 240 239 239 239 238 238 240 243 246 248 250 251 253 254 255 256 260 265 270 274 276 278 279 278 280 285 288 289 288 288 288 289 290 291 291 291 292 292 291 289 290 293 294 294 294 296 297 298 298 298 298 299 300 300 300
281 281 279 276 275 274 274 273 271 269 267 267 267 266 265 262 259 257 255 256 257 258 259 258 257 256 253 250 246 242 241 241 241 240 239 239 240 243 246 248 250 251 252 253 254 257 262 268 274 277 277 278 279 279 281 286 289 289 289 289 290 291 292 291 291 292 292 292 291 288 289 293 295 294 294 296 297 297 296 296 297 298 298 298 298
283 282 279 276 275 274 274 273 272 270 268 267 266 266 265 264 262 260 257 257 257 258 259 259 258 257 254 251 247 244 241 240 240 240 240 240 241 243 246 248 250 250 251 253 256 260 265 273 279 279 278 280 280 280 283 288 290 289 290 291 292 292 292 292 292 293 293 293 291 288 290 293 294 294 295 296 296 295 295 295 295 295 295 296 297
282 281 278 276 274 274 274 273 272 271 268 266 265 265 264 264 263 262 260 259 258 259 259 259 258 257 256 253 249 245 242 240 240 240 239 239 240 244 246 248 249 250 252 255 258 262 270 279 281 279 279 282 281 280 284 289 289 290 291 292 293 293 293 292 293 294 295 294 291 290 292 294 294 295 295 295 295 294 294 294 294 294 294 294 296
278 278 278 277 276 276 276 276 275 273 269 267 265 264 264 264 263 263 262 261 261 260 260 260 259 258 257 253 248 243 239 238 238 238 237 238 240 243 245 248 249 251 253 255 259 265 274 280 280 280 283 284 281 282 286 289 290 291 293 293 294 294 294 294 295 296 295 294 292 292 294 294 293 295 295 294 294 294 293 293 293 292 293 293 294
275 276 278 277 277 278 278 278 277 275 272 269 266 265 264 264 264 263 263 263 263 262 262 261 260 259 256 252 247 242 237 236 237 237 237 238 240 243 246 248 250 252 254 257 262 270 277 280 281 283 285 283 282 284 288 290 291 293 294 294 295 294 294 295 296 296 295 293 293 293 294 294 293 294 294 293 293 293 292 292 292 292 292 292 292
272 274 275 275 275 276 277 277 276 275 273 271 268 267 265 263 263 263 263 264 264 263 263 262 260 258 255 252 247 243 238 236 235 235 236 238 241 244 247 249 252 254 257 262 268 274 279 282 285 286 285 284 286 289 290 291 293 294 294 294 294 294 294 295 295 295 294 294 294 295 295 295 294 293 293 293 293 293 292 292 292 292 292 292 292
270 271 272 272 273 273 273 274 274 273 272 271 270 268 266 264 263 263 263 264 263 263 262 260 258 255 253 250 246 242 238 235 234 234 236 238 241 244 248 251 254 257 262 269 274 279 283 286 287 287 287 288 289 290 291 292 293 293 293 293 293 292 293 294 295 296 296 295 295 294 294 293 293 292 293 292 293 293 292 292 292 292 292 292 292
269 270 271 270 271 271 271 271 271 271 271 270 269 268 267 266 265 264 263 263 262 261 260 258 256 254 251 247 242 238 235 234 234 235 237 240 242 245 248 252 258 265 271 277 281 284 286 287 287 288 288 288 289 290 291 292 292 292 292 292 291 291 294 296 297 296 295 293 292 292 291 291 291 290 290 291 291 291 291 292 293 292 291 292 293
269 270 270 269 269 270 270 270 270 270 269 269 268 268 267 267 265 264 263 262 261 260 258 257 256 253 251 247 243 240 238 237 237 238 239 242 244 247 253 259 267 274 278 280 282 284 285 286 286 285 285 286 287 288 290 290 290 290 291 291 291 295 298 298 296 293 292 290 289 289 289 289 288 288 289 289 289 289 290 291 292 292 292 293 293
270 270 270 269 269 269 269 269 269 269 269 268 268 267 267 266 265 264 263 262 261 260 259 257 255 253 252 251 249 247 244 242 241 241 243 246 250 256 263 269 274 276 275 276 278 280 281 281 281 282 283 285 287 287 288 288 289 290 292 294 296 298 297 294 292 290 289 289 288 288 288 288 288 289 289 290 290 290 290 291 291 291 292 293 294
270 269 269 269 269 269 269 269 269 269 269 268 267 267 266 265 265 264 264 264 263 262 260 259 257 255 254 254 254 253 251 249 248 248 251 255 260 265 269 269 269 268 270 273 275 276 277 278 280 282 284 284 285 287 288 290 292 294 295 295 296 295 292 290 289 288 288 288 288 289 289 290 290 290 291 291 291 291 291 291 292 293 294 295 296
269 269 269 268 268 269 269 269 268 268 268 267 267 266 265 265 265 265 265 264 263 261 260 258 256 254 253 252 252 252 252 252 253 255 257 260 261 262 261 261 262 266 269 272 274 276 278 280 282 283 285 287 289 291 293 294 294 294 293 293 292 291 290 289 289 289 289 289 290 290 291 291 291 291 291 291 291 291 291 291 292 292 293 294 295
270 269 268 267 266 266 266 266 266 266 266 267 266 265 266 267 268 269 267 264 262 259 257 255 253 252 251 250 250 249 249 250 251 252 253 252 253 254 257 259 262 265 269 273 276 280 282 284 286 288 290 292 294 294 294 293 292 292 292 291 291 291 290 291 291 291 291 291 291 291 292 292 292 292 292 292 292 292 291 292 292 292 292 292 293
267 267 266 266 265 265 266 266 267 267 268 268 267 268 269 270 272 273 271 266 262 258 255 254 253 252 252 251 250 249 249 248 248 248 249 250 252 254 257 260 263 268 274 279 282 285 287 288 290 292 294 295 295 294 294 293 293 293 292 292 292 291 291 291 291 291 291 291 291 292 292 293 293 293 293 294 294 294 294 294 294 294 294 294 294
265 266 268 270 272 273 274 274 273 272 271 271 270 270 270 270 270 268 265 261 257 253 251 251 251 252 252 252 252 252 253 253 252 252 252 252 253 256 260 266 271 276 280 283 285 287 289 292 294 297 298 299 298 298 297 296 295 294 293 293 292 291 291 291 291 291 292 292 293 294 294 295 295 295 296 296 296 296 296 296 296 296 296 296 296
266 269 273 277 279 280 280 278 276 274 272 271 270 268 265 263 260 257 255 253 251 250 250 250 251 253 255 256 256 254 253 251 249 248 249 251 256 261 267 271 275 278 281 284 287 292 296 300 303 305 305 304 303 301 300 298 297 295 294 293 292 292 292 293 293 294 294 295 295 296 296 297 297 297 298 298 299 299 299 299 299 298 298 298 297
272 275 278 280 281 280 278 275 272 270 268 266 264 260 256 253 249 246 245 244 244 246 247 248 248 248 247 245 243 240 239 238 237 239 244 252 258 264 268 271 275 279 285 292 299 304 308 310 311 311 310 308 306 304 302 300 298 296 295 294 293 293 294 295 295 296 296 297 298 298 299 299 300 300 301 301 301 301 300 300 299 299 299 298 297
275 276 278 278 277 275 272 269 266 264 262 259 256 252 246 242 238 235 233 234 235 234 233 233 232 231 230 229 228 229 230 232 236 242 248 256 261 265 269 273 281 290 300 307 311 314 315 315 315 314 312 311 309 307 304 302 299 297 295 294 294 295 296 296 297 298 298 299 299 300 300 301 301 301 300 300 300 300 300 299 299 299 299 298 298
275 275 275 274 272 270 266 263 259 255 250 247 244 240 236 234 232 230 228 228 230 228 225 224 224 223 223 222 222 225 229 237 246 253 257 261 264 269 276 286 298 307 312 315 316 317 317 317 316 315 313 312 311 308 306 302 299 296 294 294 295 296 297 298 298 298 299 299 299 300 300 300 300 300 300 300 300 300 300 300 301 301 301 300 299
274 274 272 269 265 262 257 253 248 243 239 237 237 236 235 235 236 235 232 230 230 229 227 226 224 222 221 221 225 233 242 250 256 260 262 266 271 280 291 301 308 313 315 316 317 318 318 317 316 315 314 312 310 308 305 301 297 294 293 292 293 294 295 296 296 297 298 298 299 299 300 300 300 301 301 301 302 302 302 303 303 302 302 301 300
270 267 264 260 255 251 247 244 243 242 242 243 244 245 243 241 240 239 237 234 233 232 229 227 224 223 225 230 238 247 255 259 261 262 266 272 281 290 299 305 310 313 314 315 316 317 317 317 316 315 314 313 311 308 305 301 297 295 293 292 293 294 295 296 297 298 298 299 300 301 301 302 302 303 304 304 305 305 305 304 303 302 301 300 299
260 257 254 250 247 246 245 244 244 245 246 247 246 245 243 240 239 239 238 237 235 232 230 229 228 230 237 245 254 259 261 262 262 264 270 277 286 294 301 306 310 311 312 314 316 317 317 317 317 316 315 313 311 309 306 303 299 297 296 296 297 297 298 299 299 300 301 302 302 303 303 304 305 305 306 307 307 307 306 305 304 303 302 301 300
251 248 246 245 246 246 246 247 246 246 246 246 245 243 242 241 240 239 238 238 237 235 234 235 237 243 250 257 261 262 261 260 261 266 273 281 289 296 301 305 308 310 312 314 316 317 317 317 317 316 315 313 312 310 307 304 302 300 300 300 300 301 301 302 302 303 304 304 304 305 305 306 307 308 308 309 308 308 308 307 306 305 304 303 301
249 246 244 244 246 247 249 251 251 250 250 248 247 245 243 242 242 241 239 238 237 237 239 242 247 253 259 262 263 261 259 260 264 271 278 285 291 296 301 305 308 311 313 315 316 316 317 317 316 316 315 313 312 310 307 305 303 303 303 303 303 304 304 305 305 305 306 306 307 307 308 309 309 310 310 310 310 310 310 310 309 308 307 305 303
249 247 245 245 246 249 251 253 253 252 250 248 247 246 244 244 244 243 241 240 239 241 245 249 255 259 262 263 262 260 260 264 270 276 282 288 293 298 302 306 309 311 313 314 315 316 316 316 316 315 315 313 312 309 307 306 304 304 305 305 305 306 306 307 307 308 308 308 309 309 310 310 311 311 311 312 313 314 314 313 313 312 311 309 306
246 245 245 246 248 250 252 252 252 251 250 249 249 248 247 246 245 243 242 241 243 247 251 256 259 262 263 262 262 262 264 269 274 280 285 291 296 300 304 307 310 312 313 314 315 315 315 316 316 315 314 313 311 309 307 306 305 305 306 306 306 307 307 308 309 310 310 310 310 310 311 311 312 313 314 315 316 317 317 318 318 318 317 314 311
244 244 245 246 248 250 250 251 251 250 250 250 249 248 248 247 246 244 243 245 249 253 257 260 262 263 263 262 263 265 268 273 278 284 289 294 299 303 306 308 310 312 313 314 315 315 315 315 315 315 314 313 310 308 306 305 305 305 306 306 306 307 308 309 310 311 311 311 311 311 312 313 314 315 317 318 319 320 321 323 324 324 323 321 318
242 244 245 246 248 249 249 249 250 249 249 249 248 248 248 247 246 246 247 250 254 258 260 263 264 265 265 265 266 269 273 277 283 288 293 298 301 304 307 309 310 311 313 314 314 314 314 314 314 313 312 311 308 306 305 304 305 305 306 306 307 308 310 311 311 311 311 311 311 312 313 314 316 318 319 321 322 323 326 328 330 330 330 330 329
244 247 247 248 249 249 249 249 249 249 248 248 247 247 247 246 246 249 252 255 258 261 263 265 266 267 267 268 270 273 277 282 287 292 296 299 302 304 306 308 309 311 312 312 313 313 313 313 312 312 311 309 307 305 304 304 305 306 306 307 308 309 311 312 312 312 312 312 312 313 315 316 317 319 321 323 324 326 329 332 334 335 336 337 337
248 249 249 250 250 250 250 250 250 249 248 247 246 245 246 247 249 252 255 258 261 263 265 267 268 268 269 271 274 277 282 287 290 294 296 299 301 304 306 307 308 310 310 311 312 312 311 312 311 310 308 306 305 304 304 304 305 306 307 308 309 310 311 312 312 312 312 312 313 314 316 317 318 319 322 324 325 328 331 334 337 338 339 341 341
250 250 252 252 253 253 253 252 250 249 247 246 246 246 247 250 253 256 258 260 262 264 267 268 269 270 271 274 278 281 285 289 292 294 296 299 301 303 305 306 308 309 309 310 310 310 310 310 309 308 306 304 303 303 304 304 305 306 307 308 309 310 311 312 312 312 311 311 313 315 317 318 318 319 321 323 326 329 332 334 336 338 339 339 340
253 253 254 254 255 255 255 253 250 249 247 246 247 249 251 255 257 258 260 262 264 266 268 269 270 272 274 277 281 284 287 289 292 294 296 299 301 303 304 306 307 307 308 308 309 309 309 308 307 306 304 303 303 303 304 304 305 306 307 307 308 310 311 312 311 311 311 311 314 316 319 320 319 318 318 321 324 328 330 333 335 336 337 337 338
256 256 256 256 257 256 255 253 251 249 248 249 251 253 256 258 259 260 262 265 267 268 270 270 271 274 276 279 282 285 287 290 292 294 297 299 301 302 303 304 305 306 306 307 307 307 307 306 305 304 302 302 302 302 303 303 304 305 305 307 308 309 310 310 310 309 310 311 314 317 320 321 322 320 318 318 322 326 328 331 332 334 335 337 337
257 257 258 258 258 257 255 253 251 250 250 252 255 257 258 259 261 263 265 268 269 271 271 272 274 276 279 281 283 286 288 290 293 295 297 298 300 301 302 303 303 304 305 305 306 305 305 304 303 302 301 300 300 300 301 301 302 303 304 305 307 307 308 308 307 307 308 311 314 317 320 322 324 322 319 318 320 323 327 329 330 331 333 334 335
258 258 259 260 259 257 255 253 251 252 254 256 258 259 260 261 263 266 267 269 271 272 273 274 277 279 281 283 285 287 289 291 293 295 296 298 299 300 301 301 302 303 303 304 304 304 303 302 301 300 299 298 298 298 299 299 300 301 302 303 305 305 305 305 305 304 306 309 313 316 319 322 324 324 322 321 321 323 325 327 329 329 330 331 331
259 260 260 260 259 257 255 254 254 255 257 258 259 260 261 263 265 267 269 271 272 273 274 276 278 280 282 284 286 288 290 292 293 294 296 297 298 299 299 300 301 302 302 303 303 302 301 300 299 298 297 297 296 296 296 297 298 298 300 301 302 302 302 302 301 301 302 306 310 313 316 320 322 324 323 322 322 323 325 327 328 328 329 328 328
260 261 261 261 260 258 256 256 257 258 259 260 260 261 263 265 267 269 271 272 273 274 276 278 280 281 283 285 287 289 290 291 292 293 295 295 296 297 298 299 300 300 301 301 301 300 299 298 297 296 295 295 294 294 294 295 295 296 297 299 300 300 299 299 297 296 298 301 305 309 313 317 320 321 322 322 322 322 324 326 327 327 327 327 327
261 262 262 261 260 259 258 259 260 260 260 261 261 263 265 267 269 271 272 273 275 276 278 279 281 282 284 285 287 289 290 290 291 292 293 294 295 296 297 298 298 299 299 299 299 298 297 296 295 294 293 292 292 292 293 293 293 293 295 297 297 297 296 295 293 291 292 294 298 303 307 312 315 318 319 320 320 320 321 323 325 325 325 325 325
262 262 262 261 260 259 260 261 261 261 261 261 263 265 267 269 271 272 274 275 276 277 278 280 281 282 284 285 286 287 288 289 290 291 292 293 294 294 295 297 297 298 298 297 296 295 295 294 293 292 291 290 290 291 291 291 291 291 292 294 295 294 294 292 289 287 287 288 291 295 299 304 309 313 315 316 316 316 317 319 320 321 322 322 323
263 262 261 260 260 260 261 261 260 261 261 263 264 267 268 270 272 274 275 275 276 277 278 280 281 282 283 284 286 287 288 289 290 291 291 292 293 293 295 296 296 296 296 295 294 293 292 292 291 291 290 289 289 289 288 288 287 288 289 291 292 292 291 289 286 284 283 283 284 287 291 296 301 305 308 311 311 312 313 314 314 315 316 317 317
262 261 261 260 261 261 261 260 261 261 262 264 266 268 270 272 273 274 275 276 277 278 279 280 281 282 283 284 285 286 287 288 289 290 291 291 292 293 294 294 295 294 293 292 291 291 290 290 290 289 288 287 287 287 286 285 285 285 286 287 288 288 288 286 283 282 280 280 280 282 285 290 294 298 302 305 306 307 308 309 309 310 310 310 311
Height
3101 3100 3099 3099 3098 3098 3097 3097 3096 3096 3096 3095 3096 3096 3096 3096 3096 3096 3096 3097 3098 3098 3099 3100 3101 3102 3103 3104 3104 3105 3106 3107 3107 3108 3109 3110 3110 3111 3112 3112 3112 3112 3112 3111 3111 3110 3109 3108 3107 3107 3106 3105 3104 3103 3102 3101 3100 3099 3098 3096 3095 3093 3092 3090 3088 3087 3086 3085 3083 3081 3079 3077 3075 3073 3070 3068 3067 3066 3064 3062 3060 3058 3056 3054 3052
3097 3096 3096 3095 3095 3094 3093 3093 3092 3092 3091 3091 3091 3092 3092 3092 3092 3092 3092 3093 3093 3094 3094 3095 3096 3097 3098 3099 3100 3101 3101 3102 3103 3104 3105 3105 3106 3107 3107 3108 3108 3108 3107 3107 3106 3106 3105 3104 3103 3102 3101 3101 3100 3099 3098 3097 3096 3095 3094 3092 3090 3089 3087 3086 3084 3083 3082 3081 3079 3077 3075 3073 3070 3068 3066 3064 3062 3061 3060 3058 3055 3053 3051 3049 3048
3093 3093 3092 3091 3091 3090 3090 3089 3088 3088 3087 3087 3087 3087 3087 3087 3087 3087 3088 3088 3088 3089 3090 3091 3092 3093 3094 3095 3096 3097 3097 3098 3099 3100 3101 3101 3102 3103 3104 3104 3104 3104 3104 3103 3102 3102 3100 3099 3099 3098 3097 3096 3095 3095 3094 3093 3092 3091 3089 3088 3086 3084 3083 3081 3080 3078 3077 3076 3075 3073 3071 3069 3066 3064 3061 3060 3058 3057 3055 3053 3051 3049 3047 3045 3043
3090 3089 3088 3087 3086 3086 3086 3085 3085 3084 3084 3083 3083 3083 3083 3083 3082 3082 3083 3083 3084 3084 3085 3086 3087 3088 3089 3090 3091 3092 3093 3094 3095 3096 3097 3098 3099 3100 3100 3100 3100 3100 3100 3099 3098 3097 3095 3095 3094 3093 3092 3092 3091 3090 3090 3089 3088 3086 3085 3084 3082 3080 3078 3076 3075 3074 3073 3072 3071 3069 3067 3065 3062 3059 3057 3055 3054 3052 3050 3049 3047 3045 3043 3040 3038
3086 3084 3084 3083 3082 3082 3082 3081 3081 3080 3080 3079 3079 3078 3078 3078 3078 3078 3078 3079 3079 3080 3081 3082 3083 3084 3085 3086 3087 3088 3089 3090 3091 3092 3093 3094 3095 3095 3096 3096 3096 3095 3094 3093 3092 3092 3091 3090 3089 3088 3088 3087 3087 3086 3086 3084 3083 3082 3081 3079 3077 3075 3073 3072 3070 3069 3068 3067 3066 3065 3063 3060 3058 3055 3053 3051 3049 3047 3046 3044 3042 3040 3038 3036 3034
3081 3080 3079 3079 3078 3078 3078 3077 3077 3076 3076 3075 3074 3074 3073 3073 3073 3073 3074 3074 3075 3076 3077 3078 3079 3080 3081 3082 3083 3084 3085 3086 3087 3088 3089 3089 3090 3091 3091 3091 3091 3090 3089 3088 3088 3087 3086 3085 3084 3083 3083 3083 3083 3082 3081 3080 3079 3078 3076 3075 3073 3070 3068 3067 3065 3064 3063 3062 3061 3060 3058 3055 3053 3051 3049 3046 3044 3042 3040 3038 3037 3035 3033 3031 3029
3076 3076 3075 3075 3075 3074 3074 3073 3073 3072 3071 3071 3070 3069 3069 3069 3069 3069 3070 3070 3071 3073 3073 3074 3075 3076 3076 3077 3078 3079 3080 3081 3082 3083 3084 3084 3085 3086 3086 3086 3085 3085 3084 3084 3083 3082 3081 3080 3079 3079 3080 3079 3079 3078 3077 3076 3074 3073 3072 3070 3068 3066 3063 3062 3060 3059 3057 3056 3055 3055 3053 3050 3048 3046 3044 3041 3039 3037 3035 3032 3031 3029 3027 3025 3023
3072 3072 3071 3071 3070 3070 3069 3069 3068 3068 3067 3066 3066 3066 3065 3065 3065 3065 3066 3067 3068 3068 3069 3070 3070 3071 3071 3072 3073 3074 3075 3076 3077 3078 3079 3080 3081 3081 3081 3081 3081 3080 3080 3079 3078 3077 3076 3075 3075 3075 3075 3075 3075 3074 3072 3071 3070 3068 3067 3065 3063 3061 3059 3057 3056 3054 3052 3051 3050 3049 3047 3044 3043 3041 3039 3036 3034 3032 3029 3026 3025 3023 3021 3018 3017
3067 3068 3067 3067 3066 3065 3065 3064 3064 3063 3062 3062 3062 3062 3062 3061 3061 3061 3062 3063 3063 3064 3064 3064 3065 3065 3066 3067 3068 3069 3069 3071 3072 3074 3075 3076 3077 3077 3077 3076 3076 3076 3075 3074 3073 3072 3072 3071 3071 3071 3071 3071 3070 3069 3068 3066 3065 3064 3062 3060 3058 3056 3054 3053 3051 3049 3047 3046 3045 3044 3041 3039 3037 3036 3033 3031 3029 3027 3023 3020 3018 3017 3015 3012 3011
3062 3063 3063 3062 3061 3060 3060 3060 3059 3059 3058 3058 3058 3058 3058 3057 3057 3057 3057 3058 3058 3059 3059 3059 3059 3060 3061 3062 3062 3063 3065 3067 3069 3070 3071 3072 3072 3072 3072 3072 3071 3070 3070 3069 3068 3067 3066 3066 3067 3067 3067 3066 3065 3064 3063 3062 3060 3059 3057 3055 3053 3051 3050 3048 3046 3044 3042 3041 3040 3038 3035 3033 3033 3030 3028 3026 3023 3020 3018 3015 3012 3011 3009 3006 3005
3057 3057 3057 3057 3056 3056 3056 3055 3055 3054 3054 3054 3053 3053 3053 3053 3052 3053 3053 3053 3053 3053 3054 3054 3054 3055 3055 3056 3057 3058 3061 3063 3064 3065 3066 3067 3067 3068 3067 3067 3066 3065 3064 3063 3062 3062 3062 3063 3064 3064 3063 3061 3060 3059 3058 3057 3055 3053 3051 3050 3048 3047 3045 3043 3041 3039 3038 3036 3035 3033 3030 3028 3028 3026 3022 3020 3017 3014 3012 3010 3007 3005 3003 2999 2998
3052 3052 3052 3051 3051 3051 3051 3050 3050 3050 3050 3049 3049 3049 3048 3048 3048 3048 3048 3048 3048 3048 3048 3049 3049 3049 3050 3051 3053 3054 3056 3058 3059 3060 3061 3062 3063 3063 3062 3062 3060 3059 3058 3058 3057 3058 3059 3060 3060 3060 3058 3056 3055 3054 3053 3051 3050 3048 3046 3045 3043 3042 3040 3038 3036 3034 3033 3031 3029 3028 3025 3023 3022 3021 3018 3014 3011 3008 3006 3004 3001 2999 2996 2993 2992
3047 3046 3046 3046 3046 3046 3045 3045 3045 3045 3045 3045 3044 3044 3043 3043 3044 3043 3043 3043 3042 3043 3043 3043 3043 3044 3045 3047 3048 3049 3051 3053 3054 3055 3056 3057 3057 3057 3057 3056 3054 3053 3053 3053 3054 3054 3055 3056 3056 3055 3054 3052 3050 3049 3048 3046 3044 3043 3041 3039 3038 3037 3035 3033 3031 3029 3028 3026 3023 3022 3022 3018 3015 3015 3013 3008 3005 3002 2999 2998 2995 2992 2990 2987 2986
3042 3041 3041 3040 3040 3040 3040 3039 3040 3040 3040 3039 3039 3039 3039 3039 3039 3038 3038 3037 3037 3037 3038 3038 3038 3039 3040 3041 3042 3043 3045 3047 3049 3050 3050 3051 3052 3052 3051 3050 3048 3048 3048 3049 3049 3050 3052 3052 3051 3050 3049 3048 3046 3044 3043 3041 3039 3038 3036 3034 3033 3032 3030 3028 3026 3025 3023 3020 3017 3017 3017 3014 3009 3008 3007 3002 2999 2997 2993 2991 2989 2985 2983 2981 2980
3037 3036 3036 3035 3035 3034 3034 3034 3034 3034 3034 3034 3034 3034 3034 3033 3033 3033 3033 3032 3032 3032 3032 3032 3033 3033 3034 3035 3036 3036 3039 3041 3043 3044 3045 3046 3046 3046 3045 3043 3042 3043 3043 3044 3046 3047 3047 3046 3045 3045 3044 3043 3041 3039 3037 3036 3034 3033 3031 3029 3028 3027 3025 3023 3022 3020 3018 3015 3013 3011 3010 3008 3004 3002 3000 2996 2993 2991 2987 2985 2982 2978 2975 2973 2972
3032 3031 3031 3030 3029 3029 3029 3029 3029 3029 3029 3029 3028 3029 3029 3028 3028 3028 3027 3027 3027 3027 3027 3027 3027 3028 3028 3029 3030 3032 3034 3036 3038 3039 3040 3040 3040 3039 3038 3037 3036 3037 3039 3042 3043 3043 3042 3041 3040 3040 3039 3037 3036 3034 3032 3030 3029 3027 3026 3025 3023 3021 3020 3019 3017 3015 3012 3009 3007 3005 3003 3002 2999 2995 2994 2990 2986 2983 2979 2977 2975 2971 2967 2965 2964
3027 3026 3025 3025 3024 3024 3024 3024 3024 3024 3024 3024 3023 3023 3023 3023 3023 3022 3022 3022 3021 3022 3021 3022 3022 3022 3023 3024 3025 3027 3029 3030 3032 3033 3034 3033 3033 3033 3032 3031 3031 3034 3037 3039 3039 3038 3037 3036 3035 3034 3034 3033 3031 3029 3027 3025 3024 3023 3021 3019 3018 3016 3016 3015 3012 3009 3006 3003 3001 2998 2996 2995 2993 2989 2987 2984 2980 2975 2969 2967 2968 2964 2959 2956 2955
3022 3021 3021 3020 3020 3020 3020 3019 3019 3019 3019 3018 3018 3018 3017 3017 3017 3017 3016 3016 3016 3016 3016 3016 3016 3016 3017 3018 3019 3021 3023 3024 3025 3026 3027 3027 3027 3026 3025 3026 3028 3032 3034 3035 3034 3033 3032 3031 3030 3030 3029 3028 3027 3025 3023 3021 3019 3018 3016 3014 3013 3011 3011 3010 3006 3003 3001 2997 2995 2993 2990 2988 2986 2983 2981 2978 2974 2970 2962 2958 2958 2955 2950 2948 2947
3017 3016 3016 3015 3015 3015 3015 3014 3014 3014 3013 3013 3013 3012 3012 3012 3011 3011 3011 3010 3010 3010 3010 3010 3011 3011 3012 3013 3015 3016 3018 3019 3020 3020 3021 3021 3021 3021 3022 3024 3028 3030 3030 3030 3028 3028 3028 3027 3026 3025 3024 3023 3022 3020 3018 3016 3014 3013 3011 3008 3007 3006 3005 3003 2999 2996 2994 2991 2989 2987 2984 2982 2979 2976 2974 2972 2968 2965 2959 2953 2950 2946 2941 2940 2939
3012 3011 3011 3011 3010 3010 3010 3009 3009 3009 3008 3008 3008 3007 3007 3007 3006 3006 3005 3005 3005 3005 3005 3006 3007 3007 3008 3010 3011 3013 3013 3014 3015 3015 3016 3016 3017 3019 3021 3024 3025 3026 3025 3024 3023 3024 3024 3023 3022 3021 3020 3019 3017 3015 3014 3011 3009 3008 3006 3002 3000 3000 2999 2996 2993 2990 2987 2984 2982 2979 2977 2975 2972 2969 2967 2965 2962 2959 2954 2949 2946 2941 2935 2932 2930
3007 3007 3006 3006 3005 3005 3005 3004 3004 3004 3004 3003 3003 3003 3002 3002 3001 3001 3001 3001 3001 3001 3002 3003 3004 3005 3006 3007 3008 3009 3010 3010 3011 3011 3012 3013 3015 3017 3019 3021 3021 3021 3020 3019 3019 3020 3020 3019 3018 3017 3016 3014 3013 3011 3009 3007 3004 3002 3001 2998 2995 2994 2991 2989 2986 2983 2979 2977 2975 2972 2970 2968 2965 2963 2961 2958 2955 2953 2949 2944 2940 2936 2931 2926 2922
3002 3002 3001 3001 3001 3000 3000 3000 3000 3000 2999 2999 2999 2998 2998 2998 2997 2997 2997 2997 2997 2998 2999 3000 3001 3002 3003 3004 3005 3005 3006 3007 3008 3009 3010 3012 3013 3014 3015 3016 3016 3015 3015 3015 3016 3016 3016 3015 3014 3013 3011 3010 3009 3007 3004 3002 2999 2997 2995 2993 2990 2987 2984 2981 2979 2976 2972 2970 2967 2965 2963 2960 2957 2956 2954 2951 2948 2945 2942 2938 2934 2930 2927 2923 2918
2998 2997 2997 2997 2997 2996 2996 2996 2996 2996 2996 2996 2995 2995 2994 2994 2994 2994 2994 2994 2994 2995 2996 2997 2998 2998 2999 3000 3001 3002 3003 3004 3005 3006 3007 3008 3009 3010 3011 3011 3011 3011 3011 3012 3012 3012 3011 3010 3009 3008 3007 3006 3004 3002 3000 2997 2994 2991 2989 2986 2983 2980 2976 2973 2971 2968 2965 2962 2959 2957 2955 2953 2949 2946 2945 2943 2940 2937 2933 2930 2927 2923 2920 2917 2913
2993 2993 2993 2993 2993 2993 2992 2992 2992 2992 2992 2992 2992 2991 2991 2991 2991 2991 2992 2992 2992 2992 2993 2994 2995 2995 2996 2997 2998 2999 3000 3001 3002 3003 3004 3004 3005 3006 3006 3007 3007 3008 3008 3008 3008 3007 3006 3006 3005 3004 3003 3001 2999 2997 2994 2991 2988 2985 2982 2979 2976 2973 2970 2966 2963 2961 2958 2955 2952 2949 2947 2944 2941 2938 2936 2934 2931 2928 2925 2922 2919 2916 2912 2909 2906
2989 2989 2989 2989 2989 2989 2989 2989 2988 2988 2988 2988 2988 2988 2988 2988 2988 2989 2989 2989 2990 2990 2991 2992 2992 2993 2994 2995 2995 2996 2997 2997 2998 2999 3000 3000 3001 3002 3003 3003 3004 3004 3004 3004 3004 3003 3003 3002 3001 3000 2998 2996 2993 2990 2987 2984 2981 2978 2975 2972 2969 2966 2963 2959 2956 2953 2950 2947 2945 2942 2939 2937 2934 2931 2929 2927 2924 2921 2917 2914 2911 2908 2904 2901 2898
2986 2986 2986 2986 2986 2986 2985 2985 2985 2985 2985 2985 2985 2985 2985 2985 2986 2986 2987 2987 2987 2988 2989 2989 2990 2990 2991 2992 2992 2993 2993 2994 2995 2996 2996 2997 2998 2999 2999 3000 3000 3000 3000 3000 3000 2999 2998 2997 2995 2993 2991 2989 2986 2983 2981 2978 2975 2972 2969 2966 2962 2959 2956 2953 2949 2946 2942 2940 2937 2934 2932 2929 2927 2924 2921 2919 2916 2913 2910 2906 2903 2900 2897 2893 2889
2982 2982 2982 2983 2983 2982 2982 2982 2982 2982 2982 2982 2982 2982 2982 2982 2983 2983 2984 2984 2985 2986 2986 2987 2987 2988 2989 2989 2990 2990 2991 2992 2993 2993 2994 2995 2995 2996 2996 2996 2997 2997 2997 2996 2995 2994 2992 2990 2988 2986 2984 2982 2979 2977 2974 2971 2968 2965 2962 2959 2956 2952 2949 2946 2942 2939 2935 2932 2930 2927 2925 2922 2919 2917 2914 2911 2908 2905 2902 2898 2894 2891 2888 2884 2881
2979 2979 2979 2979 2979 2979 2980 2980 2980 2980 2980 2979 2979 2979 2980 2980 2980 2981 2981 2982 2982 2983 2984 2984 2985 2986 2987 2987 2988 2989 2989 2990 2991 2991 2992 2992 2992 2993 2993 2993 2993 2992 2992 2991 2989 2987 2986 2984 2982 2980 2978 2976 2973 2970 2967 2964 2961 2958 2955 2951 2948 2945 2942 2938 2935 2932 2929 2926 2923 2920 2918 2915 2912 2910 2907 2905 2902 2898 2895 2891 2887 2884 2880 2876 2872
2975 2975 2976 2976 2976 2977 2977 2977 2977 2977 2977 2977 2977 2977 2977 2978 2978 2978 2979 2979 2980 2980 2981 2982 2982 2983 2984 2985 2986 2987 2987 2988 2989 2989 2989 2989 2989 2989 2989 2989 2988 2987 2986 2985 2983 2982 2980 2978 2976 2974 2972 2970 2967 2964 2961 2958 2954 2951 2948 2944 2941 2938 2935 2932 2929 2926 2923 2920 2917 2914 2912 2909 2906 2903 2900 2898 2896 2892 2888 2884 2880 2876 2872 2868 2864
2971 2972 2972 2973 2973 2974 2974 2975 2975 2976 2976 2976 2976 2976 2976 2976 2976 2976 2977 2977 2977 2978 2978 2979 2980 2980 2981 2982 2983 2984 2985 2986 2986 2986 2986 2986 2986 2985 2985 2984 2983 2982 2981 2980 2978 2976 2975 2973 2971 2969 2966 2964 2961 2958 2955 2952 2948 2945 2942 2939 2935 2932 2929 2926 2923 2921 2918 2915 2911 2909 2906 2902 2900 2896 2893 2890 2888 2884 2880 2876 2872 2868 2864 2859 2855
2968 2968 2969 2970 2971 2972 2972 2973 2973 2974 2974 2974 2974 2974 2974 2974 2974 2974 2974 2975 2975 2975 2976 2977 2977 2978 2979 2980 2981 2981 2982 2982 2982 2982 2982 2982 2982 2981 2981 2980 2979 2977 2976 2974 2973 2971 2969 2967 2965 2963 2961 2958 2955 2952 2948 2945 2942 2939 2936 2933 2930 2927 2924 2921 2918 2915 2912 2909 2906 2903 2899 2896 2893 2889 2886 2882 2879 2876 2872 2868 2864 2860 2856 2852 2848
2965 2966 2967 2967 2968 2969 2970 2970 2971 2971 2971 2972 2972 2972 2972 2972 2972 2972 2972 2973 2973 2973 2974 2975 2975 2976 2977 2977 2978 2978 2978 2978 2978 2978 2978 2978 2978 2977 2976 2975 2974 2972 2971 2969 2967 2966 2964 2961 2959 2956 2954 2950 2947 2944 2941 2938 2935 2932 2929 2927 2924 2921 2918 2915 2912 2909 2906 2903 2900 2896 2893 2890 2886 2883 2879 2876 2872 2869 2865 2861 2856 2852 2848 2844 2840
2962 2963 2964 2965 2965 2966 2967 2968 2968 2968 2969 2969 2969 2969 2969 2970 2970 2970 2970 2971 2971 2971 2972 2972 2973 2973 2974 2974 2975 2975 2975 2975 2975 2974 2974 2974 2973 2973 2972 2970 2969 2967 2965 2963 2961 2959 2957 2954 2952 2949 2946 2943 2940 2937 2934 2931 2928 2925 2922 2920 2918 2915 2912 2909 2906 2903 2900 2897 2894 2890 2887 2884 2880 2877 2873 2869 2866 2862 2858 2854 2849 2845 2840 2836 2832
2959 2960 2961 2962 2962 2963 2964 2964 2965 2965 2966 2966 2966 2967 2967 2967 2968 2968 2968 2968 2969 2969 2969 2970 2970 2970 2971 2971 2971 2972 2971 2971 2971 2970 2970 2969 2968 2967 2966 2965 2963 2961 2959 2957 2955 2952 2950 2947 2944 2942 2939 2936 2933 2930 2927 2924 2921 2919 2916 2914 2911 2909 2906 2904 2901 2898 2895 2891 2888 2885 2881 2878 2875 2871 2868 2864 2860 2856 2852 2848 2843 2838 2833 2829 2825
2957 2957 2958 2959 2960 2960 2961 2962 2962 2962 2963 2963 2964 2964 2965 2965 2965 2965 2966 2966 2966 2966 2967 2967 2967 2967 2967 2968 2968 2968 2968 2967 2966 2966 2965 2964 2963 2962 2961 2959 2957 2955 2953 2951 2948 2946 2943 2941 2938 2935 2932 2930 2927 2924 2921 2918 2915 2913 2910 2908 2905 2903 2900 2898 2895 2892 2889 2886 2883 2879 2876 2873 2870 2866 2862 2859 2855 2851 2846 2842 2837 2832 2827 2823 2819
2954 2955 2956 2956 2957 2958 2958 2959 2959 2960 2960 2961 2961 2961 2962 2962 2962 2963 2963 2963 2964 2964 2964 2964 2964 2964 2964 2964 2964 2964 2964 2963 2962 2961 2960 2959 2958 2956 2955 2953 2951 2949 2947 2944 2942 2939 2937 2934 2932 2929 2926 2923 2920 2917 2915 2912 2910 2908 2905 2903 2900 2898 2895 2893 2890 2887 2884 2881 2878 2874 2871 2868 2865 2862 2858 2854 2850 2846 2842 2837 2832 2827 2823 2818 2814
2952 2953 2953 2954 2955 2955 2956 2956 2957 2957 2957 2958 2958 2958 2959 2959 2959 2960 2960 2961 2961 2961 2960 2960 2960 2960 2960 2960 2960 2960 2959 2958 2957 2957 2955 2954 2952 2951 2949 2947 2945 2943 2940 2938 2936 2933 2931 2928 2925 2923 2920 2917 2914 2912 2909 2907 2905 2903 2900 2898 2895 2893 2890 2888 2885 2882 2879 2876 2873 2870 2867 2864 2861 2857 2854 2851 2847 2843 2838 2833 2829 2824 2819 2815 2811
2950 2951 2951 2951 2952 2952 2953 2953 2954 2954 2954 2955 2955 2955 2956 2956 2956 2957 2957 2957 2957 2957 2957 2957 2957 2956 2956 2956 2956 2955 2954 2954 2953 2952 2950 2948 2947 2945 2943 2941 2939 2937 2934 2932 2930 2927 2925 2922 2920 2917 2914 2911 2909 2907 2904 2902 2900 2898 2895 2893 2890 2888 2886 2883 2880 2877 2874 2871 2868 2866 2863 2860 2857 2854 2851 2847 2843 2839 2835 2831 2826 2822 2818 2814 2810
2948 2948 2949 2949 2949 2950 2950 2950 2951 2951 2951 2951 2952 2952 2953 2953 2953 2954 2954 2954 2954 2953 2953 2953 2953 2952 2952 2952 2951 2951 2950 2949 2948 2947 2945 2943 2941 2939 2937 2935 2933 2931 2929 2926 2924 2922 2919 2917 2914 2911 2909 2906 2904 2902 2900 2897 2895 2893 2891 2888 2886 2883 2881 2879 2876 2873 2870 2867 2864 2862 2859 2856 2853 2851 2848 2844 2841 2837 2833 2829 2825 2821 2817 2814 2810
2945 2946 2946 2946 2947 2947 2947 2947 2947 2947 2947 2948 2948 2949 2949 2950 2950 2950 2950 2950 2950 2950 2949 2949 2949 2948 2948 2947 2946 2946 2945 2944 2943 2941 2940 2938 2936 2934 2932 2930 2927 2925 2923 2920 2918 2916 2914 2911 2909 2906 2904 2901 2899 2897 2895 2893 2890 2888 2886 2884 2881 2879 2876 2874 2872 2869 2866 2863 2861 2858 2856 2853 2850 2848 2845 2842 2838 2835 2831 2827 2824 2820 2817 2814 2811
2942 2943 2943 2943 2944 2944 2944 2944 2944 2944 2944 2944 2945 2945 2946 2946 2946 2946 2946 2946 2946 2945 2945 2945 2944 2943 2943 2942 2941 2941 2940 2939 2937 2936 2934 2932 2930 2928 2926 2924 2922 2919 2917 2915 2912 2910 2908 2906 2903 2901 2899 2896 2894 2892 2890 2888 2885 2883 2881 2879 2877 2874 2872 2870 2868 2865 2863 2860 2857 2855 2853 2850 2847 2845 2842 2839 2836 2832 2829 2826 2823 2820 2817 2814 2811
2939 2940 2940 2940 2940 2940 2940 2940 2940 2940 2941 2941 2941 2942 2942 2942 2942 2942 2942 2942 2941 2941 2941 2940 2939 2939 2938 2937 2936 2935 2934 2933 2932 2930 2928 2927 2925 2922 2920 2918 2916 2914 2912 2909 2907 2905 2902 2900 2898 2896 2893 2891 2889 2887 2885 2883 2881 2879 2877 2874 2872 2870 2868 2866 2864 2862 2859 2857 2854 2852 2850 2847 2845 2842 2840 2837 2834 2831 2828 2825 2822 2819 2817 2814 2811
2936 2936 2937 2937 2937 2937 2937 2936 2937 2937 2937 2937 2938 2938 2938 2938 2938 2938 2938 2937 2937 2937 2936 2936 2935 2934 2933 2932 2931 2930 2929 2928 2926 2924 2923 2921 2919 2917 2915 2912 2910 2908 2906 2904 2901 2899 2897 2895 2893 2890 2888 2886 2884 2882 2880 2878 2876 2874 2872 2870 2868 2866 2864 2862 2860 2858 2856 2854 2852 2849 2847 2844 2842 2840 2837 2835 2832 2829 2827 2824 2821 2819 2816 2814 2811
2933 2933 2933 2933 2933 2933 2933 2933 2933 2933 2933 2934 2934 2934 2934 2934 2934 2934 2933 2933 2933 2932 2932 2931 2930 2930 2928 2927 2926 2925 2923 2922 2920 2918 2917 2915 2913 2911 2909 2906 2904 2902 2900 2898 2896 2894 2891 2889 2887 2885 2883 2881 2879 2877 2875 2873 2871 2870 2868 2866 2864 2862 2860 2858 2857 2855 2853 2851 2849 2847 2844 2842 2840 2838 2835 2833 2830 2828 2825 2823 2820 2818 2816 2814 2811
2929 2929 2929 2928 2928 2928 2928 2929 2929 2929 2929 2930 2930 2930 2930 2930 2929 2929 2929 2929 2928 2928 2927 2926 2925 2924 2923 2922 2921 2919 2917 2916 2914 2912 2911 2909 2907 2905 2903 2900 2898 2896 2894 2892 2890 2888 2886 2884 2881 2879 2877 2876 2874 2872 2870 2869 2867 2865 2863 2862 2860 2858 2856 2855 2853 2852 2850 2848 2846 2844 2842 2840 2838 2836 2834 2831 2829 2826 2824 2822 2819 2817 2815 2813 2811
2925 2925 2924 2924 2924 2924 2924 2924 2924 2925 2925 2925 2925 2925 2925 2925 2925 2925 2924 2924 2923 2923 2922 2921 2920 2919 2918 2916 2915 2913 2911 2909 2908 2906 2904 2902 2900 2898 2896 2894 2892 2890 2888 2886 2884 2882 2880 2878 2876 2874 2872 2870 2869 2867 2865 2864 2862 2861 2859 2858 2856 2854 2853 2851 2850 2848 2847 2845 2844 2842 2840 2838 2836 2834 2832 2830 2828 2825 2823 2821 2818 2817 2814 2812 2810
2921 2920 2920 2920 2920 2920 2920 2920 2920 2920 2921 2921 2921 2921 2921 2921 2920 2920 2919 2919 2918 2917 2916 2915 2914 2913 2912 2910 2908 2907 2905 2903 2901 2899 2898 2896 2894 2892 2890 2888 2886 2884 2882 2880 2878 2876 2875 2872 2870 2869 2867 2865 2863 2862 2860 2859 2858 2856 2855 2853 2852 2850 2849 2848 2846 2845 2844 2842 2841 2839 2838 2836 2834 2832 2830 2828 2826 2824 2822 2819 2817 2815 2813 2811 2810
2916 2916 2916 2916 2916 2916 2916 2916 2916 2916 2916 2916 2916 2916 2916 2916 2915 2915 2914 2913 2913 2912 2911 2909 2908 2907 2905 2904 2902 2900 2899 2897 2895 2893 2891 2889 2887 2885 2883 2881 2879 2877 2875 2874 2872 2870 2868 2867 2865 2863 2861 2860 2858 2856 2855 2854 2853 2851 2850 2849 2848 2846 2845 2844 2843 2841 2840 2839 2838 2837 2835 2833 2832 2830 2828 2826 2824 2822 2820 2818 2816 2814 2812 2810 2809
2912 2911 2911 2911 2911 2911 2911 2912 2912 2912 2912 2912 2911 2911 2911 2911 2910 2909 2909 2908 2907 2906 2904 2903 2902 2901 2899 2897 2896 2894 2892 2890 2888 2886 2884 2882 2881 2878 2877 2875 2873 2871 2869 2867 2865 2864 2862 2860 2859 2857 2856 2854 2853 2851 2850 2849 2848 2846 2845 2844 2843 2842 2841 2840 2839 2838 2837 2836 2835 2834 2832 2831 2829 2827 2826 2824 2822 2821 2819 2817 2815 2813 2811 2809 2808
2907 2907 2907 2907 2907 2907 2907 2907 2907 2907 2907 2907 2906 2906 2906 2905 2904 2903 2903 2901 2900 2899 2898 2897 2895 2894 2893 2891 2889 2887 2885 2883 2882 2880 2878 2876 2874 2872 2870 2868 2866 2864 2863 2861 2859 2857 2856 2854 2853 2852 2850 2849 2847 2846 2845 2844 2842 2841 2840 2839 2838 2837 2837 2836 2835 2834 2833 2832 2831 2830 2829 2828 2826 2825 2823 2822 2820 2819 2817 2815 2813 2812 2810 2808 2806
2902 2902 2902 2902 2902 2902 2902 2902 2902 2902 2902 2901 2901 2900 2900 2899 2898 2897 2896 2895 2894 2893 2892 2890 2889 2887 2886 2884 2882 2880 2878 2876 2874 2873 2871 2869 2866 2865 2863 2861 2859 2858 2856 2854 2853 2851 2849 2848 2847 2846 2844 2843 2842 2841 2839 2838 2837 2836 2835 2834 2833 2833 2832 2831 2831 2830 2829 2828 2827 2826 2825 2824 2823 2822 2821 2819 2818 2816 2815 2813 2811 2810 2808 2806 2805